EW4600 Weather Reports


Display with metric or nautical units.
time (UTC)temp
F
wind
direction
speed
MPH
gust
MPH
rain 1hr
in
rain 24hr
in
rain mn
in
humidity
%
barometer
mb
20260506194529 61 360 3.0 6.0 0.00 0.06 0.06 71 1007.9
20260506193027 60 360 2.0 6.0 0.00 0.06 0.06 73 1008.0
20260506191528 60 360 1.0 5.0 0.00 0.06 0.06 72 1008.3
20260506190021 59 360 1.0 4.0 0.00 0.06 0.06 76 1008.3
20260506184525 58 360 4.0 10.0 0.00 0.06 0.06 77 1007.8
20260506183018 57 360 3.0 11.0 0.00 0.06 0.06 77 1007.9
20260506181517 57 360 6.0 13.0 0.00 0.06 0.06 79 1007.8
20260506180024 56 360 5.0 8.0 0.00 0.06 0.06 81 1007.8
20260506174515 54 360 6.0 13.0 0.00 0.06 0.06 83 1008.1
20260506173014 53 360 7.0 13.0 0.00 0.06 0.06 85 1008.4
20260506171513 52 360 7.0 11.0 0.00 0.06 0.06 88 1007.8
20260506170015 51 360 6.0 11.0 0.00 0.06 0.06 90 1008.0
20260506164517 50 360 3.0 9.0 0.00 0.06 0.06 91 1008.1
20260506163012 50 360 6.0 11.0 0.00 0.06 0.06 91 1007.9
20260506161512 50 360 5.0 12.0 0.00 0.06 0.06 92 1007.9
20260506160011 50 360 4.0 14.0 0.01 0.06 0.06 92 1007.7
20260506154510 50 360 5.0 13.0 0.03 0.06 0.06 92 1007.3
20260506153010 49 360 7.0 14.0 0.04 0.06 0.06 92 1008.1
20260506151514 50 360 5.0 12.0 0.05 0.06 0.06 92 1008.0
20260506150008 49 339 4.0 8.0 0.04 0.05 0.05 91 1008.7
20260506144508 49 360 2.0 5.0 0.03 0.03 0.03 91 1010.0
20260506143006 49 360 1.0 6.0 0.02 0.02 0.02 90 1008.6
20260506141502 49 360 7.0 14.0 0.01 0.01 0.01 90 1007.4
20260506140003 49 51 3.0 9.0 0.01 0.01 0.01 89 1007.5
20260506134502 49 360 4.0 11.0 0.00 0.00 0.00 89 1008.4
20260506133109 49 360 3.0 11.0 0.00 0.00 0.00 89 1008.4
20260506131557 49 360 4.0 14.0 0.00 0.00 0.00 89 1007.0
20260506130056 49 360 8.0 14.0 0.00 0.00 0.00 90 1007.0
20260506124555 49 360 4.0 14.0 0.00 0.00 0.00 89 1006.6
20260506123049 49 360 8.0 13.0 0.00 0.00 0.00 89 1006.3
20260506121546 49 17 5.0 11.0 0.00 0.00 0.00 88 1006.4
20260506120047 50 360 5.0 12.0 0.00 0.00 0.00 86 1006.3
20260506114541 50 360 7.0 13.0 0.00 0.00 0.00 85 1006.3
20260506113046 50 360 6.0 14.0 0.00 0.00 0.00 84 1005.9
20260506111533 51 360 5.0 15.0 0.00 0.00 0.00 83 1005.6
20260506110035 51 360 6.0 13.0 0.00 0.00 0.00 83 1005.3
20260506104527 52 360 5.0 13.0 0.00 0.00 0.00 82 1005.0
20260506103030 53 360 8.0 13.0 0.00 0.00 0.00 81 1004.8
20260506101523 54 360 2.0 9.0 0.00 0.00 0.00 81 1004.7
20260506100027 54 360 4.0 11.0 0.00 0.00 0.00 81 1004.2
20260506094515 54 360 4.0 10.0 0.00 0.00 0.00 81 1004.1
20260506093014 54 360 4.0 8.0 0.00 0.00 0.00 82 1003.7
20260506091510 54 360 4.0 10.0 0.00 0.00 0.00 81 1003.8
20260506090008 54 360 5.0 10.0 0.00 0.00 0.00 81 1003.6
20260506084509 54 360 3.0 9.0 0.00 0.00 0.00 81 1003.6
20260506083009 55 360 4.0 12.0 0.00 0.00 0.00 81 1003.5
20260506081503 55 360 5.0 9.0 0.00 0.00 0.00 82 1003.2
20260506073059 55 360 4.0 6.0 0.00 0.00 0.00 84 1003.6
20260506071556 55 30 4.0 10.0 0.00 0.00 0.00 84 1003.3
20260506061548 57 360 5.0 10.0 0.00 0.00 0.00 83 1002.6
20260506044531 58 360 5.0 12.0 0.00 0.00 0.00 81 1003.0
20260506043028 58 360 5.0 11.0 0.00 0.00 0.00 80 1002.8
20260506041524 59 360 3.0 11.0 0.00 0.00 0.00 79 1002.8
20260506040034 59 360 6.0 14.0 0.00 0.00 0.00 78 1002.7
20260506034521 60 360 9.0 14.0 0.00 0.00 0.00 78 1002.7
20260506033015 61 360 6.0 14.0 0.00 0.00 0.00 78 1002.4
20260506031512 61 360 5.0 12.0 0.00 0.00 0.00 78 1001.9
20260506030012 61 360 6.0 13.0 0.00 0.00 0.00 78 1001.7
20260506024507 62 360 8.0 13.0 0.00 0.00 0.00 77 1001.3
20260506023003 63 360 6.0 11.0 0.00 0.00 0.00 76 1000.9
20260506021615 64 360 4.0 9.0 0.00 0.00 0.00 76 1000.8
20260506020057 64 360 3.0 10.0 0.00 0.00 0.00 75 1000.5
20260506014556 64 360 4.0 11.0 0.00 0.00 0.00 75 1000.4
20260506013054 65 13 5.0 11.0 0.00 0.00 0.00 74 999.6
20260506011548 66 360 4.0 8.0 0.00 0.00 0.00 73 999.6
20260506010055 66 32 5.0 13.0 0.00 0.00 0.00 71 998.7
20260506004548 68 360 6.0 13.0 0.00 0.00 0.00 71 998.5
20260506003042 69 360 6.0 14.0 0.00 0.00 0.00 70 998.5
20260506001545 69 360 8.0 17.0 0.00 0.00 0.00 68 998.1
20260506000039 71 360 6.0 11.0 0.00 0.00 0.00 68 998.4
20260505234559 71 360 4.0 10.0 0.00 0.00 0.00 67 998.3
20260505233040 72 360 5.0 11.0 0.00 0.00 0.00 67 998.2
20260505231537 73 360 8.0 15.0 0.00 0.00 0.00 65 998.1
20260505230035 74 13 8.0 15.0 0.00 0.00 0.00 63 998.1
20260505224536 76 360 7.0 14.0 0.00 0.00 0.00 62 997.8
20260505223035 77 360 5.0 13.0 0.00 0.00 0.00 62 997.6
20260505221535 79 360 6.0 15.0 0.00 0.00 0.00 60 997.6
20260505220033 79 360 7.0 13.0 0.00 0.00 0.00 62 997.3
20260505214558 80 360 8.0 15.0 0.00 0.00 0.00 58 997.4
20260505213036 81 360 5.0 12.0 0.00 0.00 0.00 54 997.4
20260505211532 81 360 4.0 10.0 0.00 0.00 0.00 50 997.3
20260505210031 82 360 5.0 11.0 0.00 0.00 0.00 48 997.3
20260505204530 83 360 5.0 13.0 0.00 0.00 0.00 46 997.3
20260505203036 88 360 5.0 13.0 0.00 0.00 0.00 49 997.5
20260505201530 87 360 4.0 12.0 0.00 0.00 0.00 48 997.3
20260505200025 87 360 4.0 11.0 0.00 0.00 0.00 54 997.5